SCP
0 0 0 0 0 0 0 0 0 0 0 0 0 0 0 0 0 0 0 0 0 0 0 -0 0 0 0
0 0 0 0 0 0 0 0 0 0 0 0 0 0 0 0 0 0 0 0 0 0 0 0 0 0 0
0 0 0 0 0 0 0 0 0 0 0 0 0 0 0 0 0 0 0 0 0 0 0 0 0 0 0
0 0 0 0 0 0 0 0 0 0 0 0 0 0 0 0 0 0 0 0 0 0 0 0 0 0 0
0 0 0 0 0 0 0 0 0 0 0 0 0 0 0 0 0 0 0 0 0 0 0 0 0 0 0
0 0 0 0 0 0 0 0 0 0 0 0 0 0 0 0 0 0 0 0 0 0 0 0 0 0 0
0 0 0 0 0 0 0 0 0 0 0 0 0 0 0 0 0 0 0 0 0 0 0 0 0 0 0
0 0 0 0 0 0 0 0 0 0 0 0 0 0 0 0 0 0 0 0 0 0 0 0 0 0 0
0 0 0 0 0 0 0 0 0 0 0 0 0 0 0 0 0 0 0 0 0 0 0 0 0 0 0
0 0 0 0 0 0 0 0 0 0 0 0 0 0 0 0 0 0 0 0 0 0 0 0 0 0 0
0 0 0 0 0 0 0 0 0 0 0 0 0 0 0 0 0 0 0 0 0 0 0 0 0 0 0
0 0 0 0 0 0 0 0 0 0 0 0 0 0 0 0 0 0 0 0 0 0 0 0 0 0 0
0 0 0 0 0 0 0 0 0 0 0 0 0 0 0 0 0 0 0 0 0 0 0 0 0 0 0
0 0 0 0 0 0 0 0 0 0 0 0 0 0 0 0 0 0 0 0 0 0 0 0 0 0 0
0 0 0 0 0 0 0 0 0 0 0 0 0 0 0 0 0 0 0 0 0 0 0 0 0 0 0
0 0 0 0 0 0 0 0 0 0 0 0 0 0 0 0 0 0 0 0 0 0 0 0 0 0 0
0 0 0 0 0 0 0 0 0 0 0 0 0 0 0 0 0 0 0 0 0 0 0 0 0 0 0
Wind_Speed_500mb
44 39 41 41 40 45 39 35 37 51 43 31 24 18 16 18 17 13 10 7 9 7 9 16 26 26 39
31 28 41 47 44 35 32 36 47 45 32 27 22 22 18 15 14 16 15 10 6 16 16 22 28 34 31
43 44 42 38 36 36 40 46 48 32 24 21 20 21 22 19 18 21 18 19 16 15 19 28 26 25 27
43 41 39 42 41 43 42 44 31 26 24 23 23 23 26 24 25 28 27 25 24 23 23 25 29 29 27
41 38 39 40 39 38 39 36 29 29 27 26 25 24 25 26 28 29 30 32 33 34 34 33 34 38 38
32 34 37 38 37 38 34 27 25 28 29 27 25 25 25 25 25 26 26 28 32 35 37 39 40 41 40
28 27 31 32 26 27 24 23 24 25 19 19 20 22 22 22 21 18 17 21 23 25 28 33 36 37 39
22 25 23 25 22 22 22 24 25 26 23 21 19 18 18 18 17 15 15 12 12 12 13 17 21 22 24
17 17 19 21 20 21 22 22 21 22 20 17 14 14 15 17 18 17 15 14 13 12 13 14 15 16 17
13 13 15 17 17 18 19 19 19 16 19 18 13 11 8 17 18 19 18 18 18 17 18 19 19 19 19
16 13 14 13 13 13 13 14 15 17 11 14 11 13 14 9 11 17 20 20 22 23 25 26 26 24 24
15 13 11 11 12 13 11 12 12 13 15 16 19 17 19 20 19 17 22 28 30 30 30 31 31 33 33
13 13 14 14 13 13 14 14 14 17 17 19 22 23 24 25 26 22 23 26 30 30 35 38 37 37 36
16 17 15 14 14 15 14 17 20 20 21 25 26 26 26 25 29 26 25 24 22 24 30 34 35 35 37
19 19 18 17 17 18 20 24 23 23 24 25 26 26 26 27 30 29 28 32 32 35 42 43 41 43 45
23 23 22 21 22 25 25 27 26 27 28 28 30 30 30 27 28 31 31 30 28 32 37 41 44 39 40
26 25 26 26 26 26 28 30 32 31 30 32 33 31 33 37 35 36 37 32 31 31 33 37 42 44 43
Wind_Direction_500mb
275 255 262 256 260 262 257 253 274 296 298 284 274 260 267 225 235 236 215 211 179 174 184 174 201 196 213
273 272 256 258 249 249 247 273 285 289 278 265 248 245 251 232 223 221 216 222 219 210 192 185 176 193 215
269 271 273 264 249 251 266 273 286 275 264 247 240 245 249 241 232 229 228 227 222 230 210 213 203 202 203
266 266 262 253 250 256 264 276 271 252 243 244 246 246 246 245 242 238 233 230 229 223 220 225 227 237 243
261 253 249 248 252 260 267 270 249 244 247 251 254 253 255 249 248 245 241 237 233 229 232 234 238 238 239
254 248 244 247 249 257 263 255 250 251 252 253 255 255 256 256 254 251 250 246 240 237 237 239 239 243 246
243 243 246 244 247 254 252 249 250 255 262 257 255 255 254 254 255 253 246 246 247 243 240 241 243 243 243
253 251 250 252 250 248 249 253 258 261 260 264 255 246 242 241 243 239 239 233 227 222 223 228 235 239 241
260 255 253 246 245 248 252 255 255 258 256 251 248 235 236 240 246 245 238 228 222 224 232 240 239 240 240
249 247 246 249 254 254 252 251 252 257 246 236 239 224 238 240 240 241 239 236 231 239 249 252 251 247 250
245 248 249 247 246 250 249 247 246 241 249 233 239 230 240 258 249 245 242 232 253 259 260 260 257 260 261
239 239 242 243 243 241 238 238 241 245 245 248 255 257 258 263 261 259 254 258 261 261 257 257 264 269 269
237 237 235 241 248 250 245 242 247 249 250 256 262 265 265 265 266 264 265 269 267 266 264 265 265 266 269
239 238 239 244 247 250 261 267 255 254 255 262 264 265 266 267 270 274 276 266 271 269 266 267 269 269 269
246 244 243 244 246 249 254 259 267 272 267 264 265 268 274 280 285 291 283 274 272 266 267 270 269 269 270
248 248 240 239 251 263 267 269 272 272 271 271 274 278 283 283 285 292 287 287 280 271 269 271 271 268 269
244 246 253 254 257 268 272 268 272 272 267 261 262 267 274 281 286 282 282 288 288 286 282 277 275 276 276
Wind_Speed_850mb
44 39 41 41 40 45 39 35 37 51 43 31 24 18 16 18 17 13 10 7 9 7 9 16 26 26 39
31 28 41 47 44 35 32 36 47 45 32 27 22 22 18 15 14 16 15 10 6 16 16 22 28 34 31
43 44 42 38 36 36 40 46 48 32 24 21 20 21 22 19 18 21 18 19 16 15 19 28 26 25 27
43 41 39 42 41 43 42 44 31 26 24 23 23 23 26 24 25 28 27 25 24 23 23 25 29 29 27
41 38 39 40 39 38 39 36 29 29 27 26 25 24 25 26 28 29 30 32 33 34 34 33 34 38 38
32 34 37 38 37 38 34 27 25 28 29 27 25 25 25 25 25 26 26 28 32 35 37 39 40 41 40
28 27 31 32 26 27 24 23 24 25 19 19 20 22 22 22 21 18 17 21 23 25 28 33 36 37 39
22 25 23 25 22 22 22 24 25 26 23 21 19 18 18 18 17 15 15 12 12 12 13 17 21 22 24
17 17 19 21 20 21 22 22 21 22 20 17 14 14 15 17 18 17 15 14 13 12 13 14 15 16 17
13 13 15 17 17 18 19 19 19 16 19 18 13 11 8 17 18 19 18 18 18 17 18 19 19 19 19
16 13 14 13 13 13 13 14 15 17 11 14 11 13 14 9 11 17 20 20 22 23 25 26 26 24 24
15 13 11 11 12 13 11 12 12 13 15 16 19 17 19 20 19 17 22 28 30 30 30 31 31 33 33
13 13 14 14 13 13 14 14 14 17 17 19 22 23 24 25 26 22 23 26 30 30 35 38 37 37 36
16 17 15 14 14 15 14 17 20 20 21 25 26 26 26 25 29 26 25 24 22 24 30 34 35 35 37
19 19 18 17 17 18 20 24 23 23 24 25 26 26 26 27 30 29 28 32 32 35 42 43 41 43 45
23 23 22 21 22 25 25 27 26 27 28 28 30 30 30 27 28 31 31 30 28 32 37 41 44 39 40
26 25 26 26 26 26 28 30 32 31 30 32 33 31 33 37 35 36 37 32 31 31 33 37 42 44 43
Wind_Direction_850mb
275 255 262 256 260 262 257 253 274 296 298 284 274 260 267 225 235 236 215 211 179 174 184 174 201 196 213
273 272 256 258 249 249 247 273 285 289 278 265 248 245 251 232 223 221 216 222 219 210 192 185 176 193 215
269 271 273 264 249 251 266 273 286 275 264 247 240 245 249 241 232 229 228 227 222 230 210 213 203 202 203
266 266 262 253 250 256 264 276 271 252 243 244 246 246 246 245 242 238 233 230 229 223 220 225 227 237 243
261 253 249 248 252 260 267 270 249 244 247 251 254 253 255 249 248 245 241 237 233 229 232 234 238 238 239
254 248 244 247 249 257 263 255 250 251 252 253 255 255 256 256 254 251 250 246 240 237 237 239 239 243 246
243 243 246 244 247 254 252 249 250 255 262 257 255 255 254 254 255 253 246 246 247 243 240 241 243 243 243
253 251 250 252 250 248 249 253 258 261 260 264 255 246 242 241 243 239 239 233 227 222 223 228 235 239 241
260 255 253 246 245 248 252 255 255 258 256 251 248 235 236 240 246 245 238 228 222 224 232 240 239 240 240
249 247 246 249 254 254 252 251 252 257 246 236 239 224 238 240 240 241 239 236 231 239 249 252 251 247 250
245 248 249 247 246 250 249 247 246 241 249 233 239 230 240 258 249 245 242 232 253 259 260 260 257 260 261
239 239 242 243 243 241 238 238 241 245 245 248 255 257 258 263 261 259 254 258 261 261 257 257 264 269 269
237 237 235 241 248 250 245 242 247 249 250 256 262 265 265 265 266 264 265 269 267 266 264 265 265 266 269
239 238 239 244 247 250 261 267 255 254 255 262 264 265 266 267 270 274 276 266 271 269 266 267 269 269 269
246 244 243 244 246 249 254 259 267 272 267 264 265 268 274 280 285 291 283 274 272 266 267 270 269 269 270
248 248 240 239 251 263 267 269 272 272 271 271 274 278 283 283 285 292 287 287 280 271 269 271 271 268 269
244 246 253 254 257 268 272 268 272 272 267 261 262 267 274 281 286 282 282 288 288 286 282 277 275 276 276